Location: Asheville, NC
(35.6000°N, 82.5500°W)
Time: 07:10:05
(UTC-04:00)

Vanguard 1 - Pass Details

Date: 13 February 2018
Orbit: 650 x 3833 km, 34.3° (Epoch: 21 May)

Event Time Altitude Azimuth Distance (km) Brightness Sun altitude
Rises 16:13:05 0° 231° (SW) 5,656 15.5 20.7°
Reaches altitude 10° 16:17:46 10° 225° (SW) 4,110 15.2 19.9°
Maximum altitude 16:26:37 39° 161° (SSE) 1,661 11.6 18.4°
Drops below altitude 10° 16:32:01 10° 93° (E) 2,497 11.7 17.5°
Sets 16:34:11 0° 84° (E) 3,246 12.2 17.1°
